This is the latest recevied weather packets stored in our database for station/object KE5WTH-14. If no packets are shown the sender has not sent any weather packets the latest 1 day(s).
| Time | Temp. | Humidity | Pressure | Rain* | Wind** | Luminosity | Snow |
|---|---|---|---|---|---|---|---|
| 1778046035 | 14.44° C | 78% | 1010.1 hPa | 0 mm | 3.13 m/s, 0° | 0 W/m² | - |
| 1778045971 | 14.44° C | 78% | 1010 hPa | 0 mm | 4.02 m/s, 0° | 0 W/m² | - |
| 1778045915 | 14.44° C | 78% | 1010.1 hPa | 0 mm | 4.47 m/s, 4° | 0 W/m² | - |
| 1778045857 | 14.44° C | 78% | 1010 hPa | 0 mm | 4.02 m/s, 7° | 0 W/m² | - |
| 1778045794 | 14.44° C | 78% | 1010 hPa | 0 mm | 4.02 m/s, 7° | 0 W/m² | - |
| 1778045736 | 14.44° C | 78% | 1010 hPa | 0 mm | 4.02 m/s, 16° | 0 W/m² | - |
| 1778045675 | 14.44° C | 78% | 1010 hPa | 0 mm | 3.58 m/s, 354° | 0 W/m² | - |
| 1778045615 | 14.44° C | 78% | 1010 hPa | 0 mm | 4.02 m/s, 42° | 0 W/m² | - |
| 1778045556 | 14.44° C | 78% | 1010 hPa | 0 mm | 4.02 m/s, 4° | 0 W/m² | - |
| 1778045496 | 14.44° C | 78% | 1010 hPa | 0 mm | 4.02 m/s, 348° | 0 W/m² | - |
| 1778045467 | 15° C | 78% | 1010 hPa | 0 mm | 4.02 m/s, 336° | 0 W/m² | - |
| 1778045442 | 15° C | 78% | 1010 hPa | 0 mm | 4.02 m/s, 343° | 0 W/m² | - |
| 1778045413 | 15° C | 78% | 1010.1 hPa | 0 mm | 2.68 m/s, 1° | 0 W/m² | - |
| 1778045254 | 15° C | 79% | 1010.1 hPa | 0 mm | 1.79 m/s, 307° | 0 W/m² | - |
| 1778045193 | 15° C | 79% | 1010 hPa | 0 mm | 2.24 m/s, 338° | 0 W/m² | - |
| 1778045135 | 15° C | 79% | 1010 hPa | 0 mm | 2.24 m/s, 1° | 0 W/m² | - |
| 1778045075 | 15° C | 79% | 1010 hPa | 0 mm | 2.24 m/s, 8° | 0 W/m² | - |
| 1778045012 | 15° C | 78% | 1010 hPa | 0 mm | 3.58 m/s, 316° | 0 W/m² | - |
| 1778044953 | 15° C | 78% | 1010 hPa | 0 mm | 4.02 m/s, 357° | 0 W/m² | - |
| 1778044894 | 15° C | 78% | 1010 hPa | 0 mm | 3.13 m/s, 0° | 0 W/m² | - |
| 1778044833 | 15° C | 78% | 1010 hPa | 0 mm | 3.58 m/s, 13° | 0 W/m² | - |
| 1778044773 | 15° C | 78% | 1010 hPa | 0 mm | 3.58 m/s, 1° | 0 W/m² | - |
| 1778044713 | 15° C | 78% | 1010 hPa | 0 mm | 2.68 m/s, 354° | 0 W/m² | - |
| 1778044652 | 15° C | 78% | 1010 hPa | 0 mm | 3.58 m/s, 0° | 0 W/m² | - |
| 1778044593 | 15° C | 78% | 1010 hPa | 0 mm | 4.02 m/s, 28° | 0 W/m² | - |
* Rain latest hour (hover to see other rain measurements)
** Current wind speed in m/s (hover to see current wind gust speed)